This demonstration page uses our WeatherBlox Daily Observations layout. Learn more.

Left ArrowRight Arrow

36.17497, -115.13722

Hourly Observations for March 16, 2015

Temp ( °F °C ) Dew Point ( °F °C ) Humidity (%) Winds ( mph kmh ) Pressure ( in mb ) Visibility ( mi km ) Precip ( " mm )
12:53 am 00:53 Clear 62 16.7 33 0.6 34 34 N 5 7 30.04 1017 10 16 N/A
1:53 am 01:53 Clear 63 17.2 32 undefined 31 31 W 6 9 30.04 1017 10 16 N/A
2:53 am 02:53 Clear 60 15.6 33 0.6 36 36 N N/A 30.03 1017 10 16 N/A
3:53 am 03:53 Clear 59 15 33 0.6 38 38 NNW 6 9 30.02 1017 10 16 N/A
4:53 am 04:53 Clear 59 15 32 undefined 36 36 NNW 5 7 30.03 1017 10 16 N/A
5:53 am 05:53 Clear 58 14.4 33 0.6 39 39 NW 3 6 30.04 1017 10 16 N/A
6:53 am 06:53 Sunny 56 13.3 34 1.1 44 44 NW 5 7 30.06 1018 10 16 N/A
7:53 am 07:53 Sunny 59 15 34 1.1 39 39 NNW 3 6 30.07 1018 10 16 N/A
8:53 am 08:53 Sunny 64 17.8 34 1.1 33 33 N N/A 30.08 1019 10 16 N/A
9:53 am 09:53 Sunny 69 20.6 31 -0.6 24 24 SE 7 11 30.09 1019 10 16 N/A
10:53 am 10:53 Sunny 73 22.8 30 -1.1 20 20 ESE 8 13 30.08 1019 10 16 N/A
11:53 am 11:53 Sunny 75 23.9 30 -1.1 19 19 E 5 7 30.06 1018 10 16 N/A
12:53 pm 12:53 Sunny 77 25 28 -2.2 16 16 E 6 9 30.04 1017 10 16 N/A
1:53 pm 13:53 Sunny 80 26.7 27 -2.8 14 14 ESE 6 9 29.99 1016 10 16 N/A
2:53 pm 14:53 Sunny 81 27.2 27 -2.8 14 14 ESE 12 19 29.96 1015 10 16 N/A
3:53 pm 15:53 Sunny 82 27.8 26 -3.3 13 13 SE 12 19 29.94 1014 10 16 N/A
4:53 pm 16:53 Sunny 82 27.8 25 -3.9 12 12 SE 12 19 29.92 1013 10 16 N/A
5:53 pm 17:53 Sunny 80 26.7 25 -3.9 13 13 ESE 9 15 29.92 1013 10 16 N/A
6:53 pm 18:53 Clear 76 24.4 25 -3.9 15 15 E 7 11 29.92 1013 10 16 N/A
7:53 pm 19:53 Clear 76 24.4 26 -3.3 16 16 ENE 5 7 29.93 1014 10 16 N/A
8:53 pm 20:53 Clear 73 22.8 28 -2.2 19 19 N N/A 29.94 1014 10 16 N/A
9:53 pm 21:53 Clear 72 22.2 27 -2.8 19 19 E 6 9 29.94 1014 10 16 N/A
10:53 pm 22:53 Clear 68 20 31 -0.6 25 25 N N/A 29.95 1014 10 16 N/A
11:53 pm 23:53 Clear 65 18.3 33 0.6 31 31 N N/A 29.95 1014 10 16 N/A

Powered by AerisWeather